Weather History for St. Joseph, MO

Change the Weather History Date:

Friday, December 14, 2012

  Actual Average Record
Temperature  
Mean Temperature 39 °F 29 °F  
Max Temperature 54 °F 39 °F 64 °F (1933)
Min Temperature 24 °F 20 °F -8 °F (1914)
Degree Days  
Heating Degree Days 26 36  
Month to date heating degree days 344 466  
Since 1 July heating degree days 1456 1577  
Cooling Degree Days 0 0  
Month to date cooling degree days 0 0  
Year to date cooling degree days 1565 1221  
Moisture  
Dew Point 30 °F    
Average Humidity 60    
Maximum Humidity 81    
Minimum Humidity 39    
Precipitation  
Precipitation 0.31 in 0.06 in 0.71 in (1989)
Month to date precipitation 0.34 0.70  
Year to date precipitation 22.65 34.78  
Sea Level Pressure  
Sea Level Pressure 29.93 in    
Wind  
Wind Speed 10 mph (SSE)    
Max Wind Speed 23 mph    
Max Gust Speed 26 mph    
Visibility 9 miles    
Events Rain    
T = Trace of Precipitation, MM = Missing Value Source: NWS Daily Summary

Daily Weather History Graph

Daily Weather History Graph

Search for Another Location

Airport:

Trip Planner

Search our weather history database for the weather conditions in past years. The results will help you decide how hot, cold, wet, or windy it might be!

Date:

Astronomy

Dec. 14, 2012 Rise Set
Actual Time 7:33 AM CST 4:55 PM CST
Civil Twilight 7:02 AM CST 5:26 PM CST
Nautical Twilight 6:29 AM CST 6:00 PM CST
Astronomical Twilight 5:56 AM CST 6:33 PM CST
Moon 8:38 AM CST (12/14) 6:49 PM CST (12/14)
Length of Visible Light 10h 23m
Length of Day
9h 22m
Waxing Crescent, 3% of the Moon is Illuminated
Dec 14
Waxing Crescent
Dec 19
First Quarter
Dec 28
Full
Jan 4
Last Quarter
Jan 11
New

Hourly Weather History & Observations

Time (CST) Temp. Windchill Dew Point Humidity Pressure Visibility Wind Dir Wind Speed Gust Speed Precip Events Conditions
12:53 AM 27.0 °F - 21.9 °F 81% 30.10 in 10.0 mi Calm Calm - N/A   Clear
1:53 AM 27.0 °F - 19.9 °F 75% 30.10 in 9.0 mi Calm Calm - N/A   Clear
2:53 AM 25.0 °F 20.7 °F 19.0 °F 78% 30.09 in 10.0 mi South 3.5 mph - N/A   Clear
3:53 AM 27.0 °F 23.0 °F 19.9 °F 75% 30.08 in 10.0 mi SSE 3.5 mph - N/A   Clear
4:53 AM 26.1 °F 21.9 °F 19.9 °F 78% 30.08 in 10.0 mi SSE 3.5 mph - N/A   Clear
5:53 AM 34.0 °F 31.0 °F 23.0 °F 64% 30.08 in 10.0 mi SE 3.5 mph - N/A   Clear
6:53 AM 35.1 °F 30.1 °F 23.0 °F 61% 30.08 in 10.0 mi South 5.8 mph - N/A   Clear
7:53 AM 35.1 °F 30.1 °F 23.0 °F 61% 30.07 in 10.0 mi SSE 5.8 mph - N/A   Clear
8:53 AM 42.1 °F 37.7 °F 27.0 °F 55% 30.06 in 10.0 mi South 6.9 mph - N/A   Clear
9:53 AM 48.0 °F - 27.0 °F 44% 30.05 in 10.0 mi South 10.4 mph - N/A   Clear
10:53 AM 50.0 °F - 27.0 °F 41% 30.04 in 10.0 mi South 15.0 mph - N/A   Clear
11:53 AM 51.1 °F - 28.9 °F 43% 30.00 in 10.0 mi South 12.7 mph - N/A   Clear
12:53 PM 53.1 °F - 30.0 °F 41% 29.96 in 10.0 mi South 13.8 mph - N/A   Scattered Clouds
1:53 PM 53.1 °F - 30.0 °F 41% 29.93 in 10.0 mi South 13.8 mph - N/A   Mostly Cloudy
2:53 PM 53.1 °F - 30.0 °F 41% 29.89 in 10.0 mi SSE 13.8 mph - N/A   Overcast
3:26 PM 51.8 °F - 30.2 °F 44% 29.88 in 10.0 mi South 13.8 mph - N/A   Overcast
3:34 PM 51.8 °F - 30.2 °F 44% 29.88 in 10.0 mi South 10.4 mph - N/A   Overcast
3:42 PM 51.8 °F - 30.2 °F 44% 29.88 in 10.0 mi South 13.8 mph - N/A   Overcast
3:53 PM 52.0 °F - 32.0 °F 47% 29.89 in 10.0 mi South 11.5 mph - N/A   Overcast
4:53 PM 51.1 °F - 30.0 °F 44% 29.87 in 10.0 mi SE 10.4 mph - N/A   Overcast
5:53 PM 50.0 °F - 39.0 °F 66% 29.86 in 10.0 mi South 13.8 mph 20.7 mph N/A   Overcast
6:53 PM 50.0 °F - 39.0 °F 66% 29.85 in 10.0 mi SSE 12.7 mph - N/A   Overcast
7:53 PM 50.0 °F - 37.0 °F 61% 29.84 in 10.0 mi SSE 10.4 mph - 0.00 in Rain Light Rain
8:18 PM 51.8 °F - 35.6 °F 54% 29.81 in 10.0 mi SSE 9.2 mph - 0.00 in   Overcast
8:53 PM 51.1 °F - 33.1 °F 50% 29.79 in 10.0 mi SSE 8.1 mph - 0.00 in   Overcast
9:30 PM 51.8 °F - 30.2 °F 44% 29.76 in 10.0 mi SE 10.4 mph - N/A   Overcast
9:53 PM 52.0 °F - 32.0 °F 47% 29.74 in 10.0 mi SSE 13.8 mph 21.9 mph N/A   Overcast
10:53 PM 46.9 °F - 39.0 °F 74% 29.72 in 5.0 mi South 13.8 mph - 0.03 in Rain Rain
11:53 PM 45.0 °F 36.6 °F 42.1 °F 90% 29.70 in 4.0 mi South 21.9 mph 26.5 mph 0.22 in Rain Rain
11:58 PM 44.6 °F 36.6 °F 42.8 °F 93% 29.70 in 2.5 mi South 19.6 mph 26.5 mph 0.05 in Rain Heavy Rain